Change the Weather History Date:

Wednesday, February 19, 2014

  Actual Average Record
Temperature  
Mean Temperature 64 °F 52 °F  
Max Temperature 75 °F 63 °F 80 °F (2011)
Min Temperature 53 °F 41 °F 17 °F (1958)
Degree Days  
Heating Degree Days 1 13  
Month to date heating degree days 293 285  
Since 1 July heating degree days 1843 1668  
Cooling Degree Days 0 0  
Month to date cooling degree days 0 0  
Year to date cooling degree days 0 1  
Growing Degree Days 14 (Base 50)    
Moisture  
Dew Point 56 °F    
Average Humidity 73    
Maximum Humidity 93    
Minimum Humidity 53    
Precipitation  
Precipitation 0.00 in 0.17 in 2.65 in (1961)
Month to date precipitation 3.78 2.96  
Year to date precipitation 6.69 6.81  
Snow  
Snow 0.00 in 0.00 in 0.00 in (2002)
Month to date snowfall 0.0 0.0  
Since 1 July snowfall 1.2 0.3  
Snow Depth 0.00 in    
Sea Level Pressure  
Sea Level Pressure 30.08 in    
Wind  
Wind Speed 4 mph (SW)    
Max Wind Speed 15 mph    
Max Gust Speed 20 mph    
Visibility 9 miles    
Events      
T = Trace of Precipitation, MM = Missing Value Source: NWS Daily Summary

Daily Weather History Graph

Daily Weather History Graph

Search for Another Location

Airport or City:

Trip Planner

Search our weather history database for the weather conditions in past years. The results will help you decide how hot, cold, wet, or windy it might be!

Date:

Astronomy

Feb. 19, 2014 Rise Set
Actual Time 7:18 AM EST 6:29 PM EST
Civil Twilight 6:53 AM EST 6:54 PM EST
Nautical Twilight 6:24 AM EST 7:22 PM EST
Astronomical Twilight 5:56 AM EST 7:51 PM EST
Moon 11:02 PM EST (2/19) 9:41 AM EST (2/19)
Length of Visible Light 12h 00m
Length of Day
11h 10m
Waning Gibbous, 80% of the Moon is Illuminated
Feb 19
Waning Gibbous
Feb 22
Last Quarter
Mar 1
New
Mar 8
First Quarter
Mar 16
Full

Hourly Weather History & Observations

Time (EST) Temp. Dew Point Humidity Pressure Visibility Wind Dir Wind Speed Gust Speed Precip Events Conditions
12:51 AM 60.1 °F 57.0 °F 90% 30.09 in 10.0 mi SW 5.8 mph - N/A   Clear
1:51 AM 59.0 °F 57.0 °F 93% 30.09 in 10.0 mi SW 5.8 mph - N/A   Clear
2:51 AM 59.0 °F 57.0 °F 93% 30.06 in 10.0 mi SSW 6.9 mph - N/A   Clear
3:51 AM 57.9 °F 55.9 °F 93% 30.07 in 10.0 mi WSW 4.6 mph - N/A   Clear
4:51 AM 57.9 °F 55.0 °F 90% 30.08 in 10.0 mi Calm Calm - N/A   Clear
5:51 AM 55.9 °F 54.0 °F 93% 30.08 in 10.0 mi West 3.5 mph - N/A   Clear
6:47 AM 55.4 °F 53.6 °F 94% 30.10 in 6.0 mi Calm Calm - N/A   Mostly Cloudy
6:51 AM 55.0 °F 54.0 °F 96% 30.09 in 8.0 mi Calm Calm - N/A   Scattered Clouds
7:48 AM 55.4 °F 53.6 °F 94% 30.11 in 6.0 mi Calm Calm - N/A   Mostly Cloudy
7:51 AM 55.0 °F 54.0 °F 96% 30.11 in 6.0 mi Calm Calm - N/A   Mostly Cloudy
8:17 AM 55.4 °F 55.4 °F 100% 30.12 in 7.0 mi WSW 5.8 mph - N/A   Overcast
8:27 AM 57.2 °F 55.4 °F 94% 30.13 in 8.0 mi WSW 9.2 mph - N/A   Overcast
8:51 AM 57.0 °F 55.0 °F 93% 30.12 in 9.0 mi West 6.9 mph - N/A   Overcast
9:51 AM 57.9 °F 55.9 °F 93% 30.12 in 6.0 mi WSW 5.8 mph - N/A   Overcast
10:51 AM 59.0 °F 57.0 °F 93% 30.13 in 6.0 mi Calm Calm - N/A   Overcast
11:25 AM 60.8 °F 57.2 °F 88% 30.13 in 8.0 mi South 6.9 mph - N/A   Overcast
11:51 AM 62.1 °F 57.9 °F 86% 30.12 in 8.0 mi WSW 3.5 mph - N/A   Overcast
12:23 PM 64.4 °F 57.2 °F 77% 30.11 in 10.0 mi SW 5.8 mph - N/A   Overcast
12:35 PM 66.2 °F 59.0 °F 78% 30.10 in 10.0 mi SW 5.8 mph - N/A   Mostly Cloudy
12:51 PM 66.9 °F 59.0 °F 76% 30.09 in 10.0 mi WSW 6.9 mph - N/A   Mostly Cloudy
1:29 PM 69.8 °F 59.0 °F 68% 30.08 in 10.0 mi South 3.5 mph - N/A   Mostly Cloudy
1:51 PM 70.0 °F 59.0 °F 68% 30.06 in 10.0 mi Variable 5.8 mph - N/A   Mostly Cloudy
2:51 PM 73.9 °F 57.0 °F 55% 30.03 in 10.0 mi WSW 10.4 mph - N/A   Mostly Cloudy
3:51 PM 73.9 °F 55.0 °F 52% 30.02 in 10.0 mi WSW 6.9 mph - N/A   Mostly Cloudy
4:51 PM 73.9 °F 55.0 °F 52% 30.01 in 10.0 mi SW 8.1 mph - N/A   Clear
5:51 PM 73.0 °F 55.0 °F 53% 30.02 in 10.0 mi SSW 10.4 mph - N/A   Clear
6:51 PM 70.0 °F 55.9 °F 61% 30.02 in 10.0 mi South 4.6 mph - N/A   Clear
7:51 PM 69.1 °F 57.0 °F 65% 30.03 in 10.0 mi South 4.6 mph - N/A   Clear
8:51 PM 66.9 °F 57.0 °F 70% 30.05 in 10.0 mi Calm Calm - N/A   Overcast
9:51 PM 66.0 °F 57.0 °F 73% 30.05 in 10.0 mi SSE 3.5 mph - N/A   Partly Cloudy
10:51 PM 63.0 °F 55.9 °F 78% 30.06 in 10.0 mi Calm Calm - N/A   Clear
11:51 PM 62.1 °F 55.9 °F 80% 30.05 in 10.0 mi Calm Calm - N/A   Clear